This is the latest recevied weather packets stored in our database for station/object NK2J. If no packets are shown the sender has not sent any weather packets the latest 10 day(s).
| Time | Temp. | Humidity | Pressure | Rain* | Wind** | Luminosity | Snow |
|---|---|---|---|---|---|---|---|
| 1777926351 | 25° C | 36% | 1014.1 hPa | 0 mm | - | 349 W/m² | - |
| 1777926048 | 25° C | 36% | 1014.1 hPa | 0 mm | - | 341 W/m² | - |
| 1777925745 | 25.56° C | 36% | 1014.2 hPa | 0 mm | - | 318 W/m² | - |
| 1777925443 | 25° C | 36% | 1014.2 hPa | 0 mm | - | 269 W/m² | - |
| 1777925138 | 25° C | 36% | 1014.2 hPa | 0 mm | - | 242 W/m² | - |
| 1777924836 | 25° C | 36% | 1014.2 hPa | 0 mm | - | 209 W/m² | - |
| 1777924532 | 25.56° C | 36% | 1014.4 hPa | 0 mm | - | 255 W/m² | - |
| 1777924228 | 25.56° C | 36% | 1014.6 hPa | 0 mm | - | 302 W/m² | - |
| 1777923925 | 25.56° C | 36% | 1014.4 hPa | 0 mm | - | 282 W/m² | - |
| 1777923620 | 25.56° C | 36% | 1014.5 hPa | 0 mm | - | 287 W/m² | - |
| 1777923317 | 25.56° C | 35% | 1014.5 hPa | 0 mm | - | 338 W/m² | - |
| 1777923016 | 25.56° C | 36% | 1014.5 hPa | 0 mm | - | 408 W/m² | - |
| 1777922714 | 25.56° C | 35% | 1014.4 hPa | 0 mm | - | 421 W/m² | - |
| 1777922412 | 26.11° C | 34% | 1014.4 hPa | 0 mm | - | 472 W/m² | - |
| 1777922109 | 25.56° C | 38% | 1014.4 hPa | 0 mm | - | 484 W/m² | - |
| 1777921805 | 25.56° C | 36% | 1014.3 hPa | 0 mm | - | 429 W/m² | - |
| 1777921501 | 25.56° C | 34% | 1014.2 hPa | 0 mm | - | 339 W/m² | - |
| 1777921197 | 25.56° C | 35% | 1014.1 hPa | 0 mm | - | 403 W/m² | - |
| 1777920895 | 25.56° C | 36% | 1014.1 hPa | 0 mm | - | 393 W/m² | - |
| 1777920591 | 25.56° C | 35% | 1014.2 hPa | 0 mm | - | 396 W/m² | - |
| 1777920287 | 25.56° C | 36% | 1014.2 hPa | 0 mm | - | 445 W/m² | - |
| 1777919982 | 25.56° C | 35% | 1014.4 hPa | 0 mm | - | 361 W/m² | - |
| 1777919680 | 25° C | 35% | 1014.6 hPa | 0 mm | - | 519 W/m² | - |
| 1777919378 | 25.56° C | 36% | 1014.5 hPa | 0 mm | - | 395 W/m² | - |
| 1777919074 | 25° C | 35% | 1014.6 hPa | 0 mm | - | 308 W/m² | - |
* Rain latest hour (hover to see other rain measurements)
** Current wind speed in m/s (hover to see current wind gust speed)